Washington, MO

6:56 AM CDT on October 22, 2017 (GMT -0500)
Washington

Weather History for KFYG - March, 2014

Change the Weather History Date:

Saturday, March 1, 2014

  Actual Average (KSUS) Record (KSUS)
Temperature  
Mean Temperature 32 °F -  
Max Temperature 41 °F 46 °F 78 °F (2006)
Min Temperature 24 °F 27 °F 12 °F (2015)
Degree Days  
Heating Degree Days 32    
Moisture  
Dew Point 26 °F    
Average Humidity 76    
Maximum Humidity 100    
Minimum Humidity 48    
Precipitation  
Precipitation 0.00 in - - ()
Sea Level Pressure  
Sea Level Pressure 30.15 in    
Wind  
Wind Speed 3 mph (North)    
Max Wind Speed 12 mph    
Max Gust Speed 16 mph    
Visibility 9 miles    
Events Rain    
Averages and records for this station are not official NWS values.
T = Trace of Precipitation, MM = Missing Value Source: NWS Daily Summary

Daily Weather History Graph

Daily Weather History Graph

Search for Another Location

Airport or City:

Trip Planner

Search our weather history database for the weather conditions in past years. The results will help you decide how hot, cold, wet, or windy it might be!

Date:

Astronomy

Mar. 01, 2014 Rise Set
Actual Time 6:36 AM CST 5:56 PM CST
Civil Twilight 6:09 AM CST 6:23 PM CST
Nautical Twilight 5:38 AM CST 6:54 PM CST
Astronomical Twilight 5:08 AM CST 7:25 PM CST
Moon 6:30 AM CST (3/1) 6:43 PM CST (3/1)
Length of Visible Light 12h 14m
Length of Day
11h 20m
New Moon, 0% of the Moon is Illuminated
Mar 1
New Moon
Mar 8
First Quarter
Mar 16
Full
Mar 23
Last Quarter
Mar 30
New

Hourly Weather History & Observations

Time (CST) Temp. Windchill Dew Point Humidity Pressure Visibility Wind Dir Wind Speed Gust Speed Precip Events Conditions
12:15 AM 37.4 °F - 19.4 °F 48% 30.03 in 10.0 mi Calm Calm - N/A   Overcast
12:35 AM 37.4 °F - 19.4 °F 48% 30.03 in 10.0 mi Calm Calm - N/A   Overcast
12:55 AM 37.4 °F - 19.4 °F 48% 30.03 in 10.0 mi Calm Calm - N/A   Overcast
1:15 AM 37.4 °F - 19.4 °F 48% 30.03 in 10.0 mi Calm Calm - N/A   Overcast
1:35 AM 37.4 °F - 24.8 °F 60% 30.04 in 10.0 mi Calm Calm - N/A   Overcast
1:55 AM 37.4 °F 34.9 °F 21.2 °F 52% 30.04 in 10.0 mi NNW 3.5 mph - N/A   Overcast
2:15 AM 39.2 °F - 23.0 °F 52% 30.02 in 10.0 mi Calm Calm - N/A   Overcast
2:35 AM 41.0 °F - 24.8 °F 53% 30.01 in 10.0 mi Calm Calm - N/A   Overcast
2:55 AM 33.8 °F - 26.6 °F 75% 30.02 in 10.0 mi Calm Calm - N/A   Mostly Cloudy
3:15 AM 35.6 °F - 26.6 °F 70% 30.03 in 10.0 mi Calm Calm - N/A   Overcast
3:35 AM 33.8 °F - 26.6 °F 75% 30.02 in 10.0 mi Calm Calm - N/A   Overcast
3:55 AM 32.0 °F - 26.6 °F 80% 30.05 in 10.0 mi Calm Calm - N/A   Overcast
4:15 AM 35.6 °F - 24.8 °F 65% 30.06 in 10.0 mi North - - N/A   Overcast
4:35 AM 35.6 °F 32.8 °F 24.8 °F 65% 30.06 in 10.0 mi North 3.5 mph - N/A   Overcast
4:55 AM 35.6 °F - 26.6 °F 70% 30.06 in 10.0 mi Calm Calm - N/A   Overcast
5:15 AM 32.0 °F - 26.6 °F 80% 30.07 in 10.0 mi Calm Calm - N/A   Overcast
5:35 AM 32.0 °F - 26.6 °F 80% 30.09 in 10.0 mi Calm Calm - N/A   Overcast
5:55 AM 32.0 °F - 26.6 °F 80% 30.08 in 10.0 mi Calm Calm - N/A   Overcast
6:15 AM 32.0 °F - 28.4 °F 87% 30.08 in 10.0 mi Calm Calm - N/A   Overcast
6:35 AM 30.2 °F - 28.4 °F 93% 30.09 in 10.0 mi Calm Calm - N/A   Overcast
6:55 AM 28.4 °F 24.6 °F 26.6 °F 93% 30.11 in 10.0 mi NW 3.5 mph - N/A   Overcast
7:15 AM 32.0 °F - 26.6 °F 80% 30.12 in 10.0 mi Calm Calm - N/A   Overcast
7:35 AM 32.0 °F - 30.2 °F 93% 30.13 in 10.0 mi Calm Calm - N/A   Overcast
7:55 AM 33.8 °F - 30.2 °F 87% 30.13 in 10.0 mi Calm Calm - N/A   Overcast
8:15 AM 35.6 °F 32.8 °F 30.2 °F 81% 30.14 in 10.0 mi NW 3.5 mph - N/A   Overcast
8:35 AM 35.6 °F - 30.2 °F 81% 30.15 in 10.0 mi Calm Calm - N/A   Overcast
8:55 AM 37.4 °F 30.3 °F 28.4 °F 70% 30.15 in 10.0 mi North 10.4 mph - N/A   Overcast
9:15 AM 37.4 °F 29.8 °F 26.6 °F 65% 30.15 in 10.0 mi North 11.5 mph - N/A   Overcast
9:35 AM 37.4 °F 30.8 °F 26.6 °F 65% 30.17 in 10.0 mi North 9.2 mph - N/A   Overcast
9:55 AM 37.4 °F 32.8 °F 26.6 °F 65% 30.18 in 10.0 mi NNE 5.8 mph - N/A   Overcast
10:15 AM 37.4 °F 31.4 °F 26.6 °F 65% 30.19 in 10.0 mi North 8.1 mph - N/A   Overcast
10:35 AM 35.6 °F 30.7 °F 26.6 °F 70% 30.19 in 10.0 mi North 5.8 mph - N/A   Overcast
10:55 AM 35.6 °F 29.2 °F 26.6 °F 70% 30.20 in 10.0 mi North 8.1 mph - N/A   Overcast
11:15 AM 35.6 °F 29.9 °F 26.6 °F 70% 30.20 in 9.0 mi North 6.9 mph - N/A   Overcast
11:35 AM 35.6 °F 29.9 °F 26.6 °F 70% 30.18 in 8.0 mi NNW 6.9 mph - N/A   Overcast
11:55 AM 35.6 °F 30.7 °F 26.6 °F 70% 30.19 in 8.0 mi North 5.8 mph - N/A   Overcast
12:15 PM 37.4 °F 30.8 °F 26.6 °F 65% 30.18 in 8.0 mi North 9.2 mph - N/A   Overcast
12:35 PM 35.6 °F 28.0 °F 26.6 °F 70% 30.18 in 9.0 mi North 10.4 mph - N/A   Overcast
12:55 PM 35.6 °F 29.2 °F 26.6 °F 70% 30.17 in 9.0 mi North 8.1 mph - N/A   Overcast
1:15 PM 37.4 °F 30.8 °F 26.6 °F 65% 30.17 in 10.0 mi North 9.2 mph - N/A   Overcast
1:35 PM 37.4 °F 31.4 °F 26.6 °F 65% 30.16 in 10.0 mi North 8.1 mph - N/A   Overcast
1:55 PM 37.4 °F 30.8 °F 26.6 °F 65% 30.16 in 9.0 mi North 9.2 mph - N/A   Overcast
2:15 PM 35.6 °F 28.6 °F 24.8 °F 65% 30.16 in 9.0 mi North 9.2 mph - N/A   Overcast
2:35 PM 35.6 °F 29.2 °F 24.8 °F 65% 30.17 in 8.0 mi North 8.1 mph - N/A   Overcast
2:55 PM 35.6 °F 29.2 °F 24.8 °F 65% 30.18 in 9.0 mi North 8.1 mph - N/A   Overcast
3:15 PM 35.6 °F 29.2 °F 24.8 °F 65% 30.18 in 8.0 mi North 8.1 mph - N/A   Overcast
3:35 PM 33.8 °F 26.4 °F 24.8 °F 70% 30.18 in 9.0 mi North 9.2 mph - N/A   Overcast
3:55 PM 32.0 °F 23.6 °F 24.8 °F 75% 30.18 in 9.0 mi North 10.4 mph - N/A   Overcast
4:15 PM 32.0 °F 24.8 °F 24.8 °F 75% 30.18 in 9.0 mi North 8.1 mph - N/A   Overcast
4:35 PM 32.0 °F 25.6 °F 24.8 °F 75% 30.16 in 9.0 mi North 6.9 mph 16.1 mph N/A   Overcast
4:55 PM 32.0 °F 24.2 °F 24.8 °F 75% 30.18 in 9.0 mi North 9.2 mph 16.1 mph N/A   Overcast
5:15 PM 30.2 °F 21.3 °F 24.8 °F 80% 30.19 in 10.0 mi North 10.4 mph - N/A   Overcast
5:55 PM 28.4 °F 20.4 °F 24.8 °F 86% 30.21 in 10.0 mi North 8.1 mph 16.1 mph N/A   Overcast
6:15 PM 28.4 °F 21.2 °F 24.8 °F 86% 30.22 in 10.0 mi North 6.9 mph - N/A   Overcast
6:35 PM 28.4 °F 23.3 °F 24.8 °F 86% 30.22 in 9.0 mi NNE 4.6 mph - N/A   Overcast
6:55 PM 26.6 °F - 24.8 °F 93% 30.21 in 9.0 mi Calm Calm - N/A   Overcast
7:15 PM 26.6 °F 20.0 °F 24.8 °F 93% 30.22 in 9.0 mi NE 5.8 mph - N/A   Overcast
7:35 PM 26.6 °F 21.2 °F 24.8 °F 93% 30.22 in 10.0 mi NNE 4.6 mph - N/A   Overcast
7:55 PM 26.6 °F 21.2 °F 24.8 °F 93% 30.22 in 8.0 mi North 4.6 mph - N/A   Overcast
8:15 PM 26.6 °F 22.6 °F 24.8 °F 93% 30.23 in 8.0 mi North 3.5 mph - N/A   Overcast
8:55 PM 26.6 °F 20.0 °F 24.8 °F 93% 30.25 in 8.0 mi NNE 5.8 mph - N/A   Overcast
9:15 PM 26.6 °F 17.5 °F 24.8 °F 93% 30.23 in 4.0 mi ENE 9.2 mph - N/A   Overcast
9:35 PM 24.8 °F 16.9 °F 24.8 °F 100% 30.23 in 4.0 mi North 6.9 mph - N/A   Overcast
9:55 PM 24.8 °F 17.9 °F 24.8 °F 100% 30.23 in 5.0 mi North 5.8 mph - N/A   Overcast
10:15 PM 24.8 °F 16.9 °F 24.8 °F 100% 30.23 in 5.0 mi North 6.9 mph - N/A   Overcast
10:35 PM 24.8 °F 16.9 °F 24.8 °F 100% 30.25 in 7.0 mi North 6.9 mph - N/A   Overcast
10:55 PM 24.8 °F 15.3 °F 24.8 °F 100% 30.26 in 5.0 mi North 9.2 mph - N/A Rain Light Freezing Rain
11:15 PM 24.8 °F 17.9 °F 24.8 °F 100% 30.27 in 3.0 mi North 5.8 mph - N/A Rain Light Freezing Rain
11:35 PM 24.8 °F 17.9 °F 24.8 °F 100% 30.26 in 2.5 mi North 5.8 mph - N/A Rain Light Freezing Rain
11:55 PM 24.8 °F 17.9 °F 24.8 °F 100% 30.26 in 3.0 mi NNE 5.8 mph - N/A Rain Light Freezing Rain